DW9882 Weather Reports


Display with metric or nautical units.
time (UTC)temp
F
wind
direction
speed
MPH
gust
MPH
rain 1hr
in
rain 24hr
in
rain mn
in
humidity
%
barometer
mb
20230208100201 22 196 0.0 0.0 0.00 0.00 0.00 78 1018.5
20230208095201 22 196 0.0 0.0 0.00 0.00 0.00 78 1018.6
20230208094701 22 196 0.0 0.0 0.00 0.00 0.00 78 1018.6
20230208093701 23 196 0.0 0.0 0.00 0.00 0.00 77 1018.7
20230208093201 23 196 0.0 0.0 0.00 0.00 0.00 77 1018.7
20230208092701 23 196 0.0 0.0 0.00 0.00 0.00 76 1018.8
20230208092210 24 196 0.0 0.0 0.00 0.00 0.00 75 1018.8
20230208091710 24 195 0.0 0.0 0.00 0.00 0.00 76 1018.8
20230208091205 24 196 0.0 0.0 0.00 0.00 0.00 76 1018.8
20230208090707 24 196 0.0 0.0 0.00 0.00 0.00 75 1018.9
20230208090201 24 196 0.0 0.0 0.00 0.00 0.00 75 1019.0
20230208085701 24 196 0.0 0.0 0.00 0.00 0.00 73 1019.1
20230208085201 24 196 0.0 0.0 0.00 0.00 0.00 74 1019.2
20230208084201 24 230 0.0 0.0 0.00 0.00 0.00 72 1019.1
20230208083701 24 263 0.0 0.0 0.00 0.00 0.00 72 1019.2
20230208083201 25 252 0.0 0.0 0.00 0.00 0.00 68 1019.2
20230208082701 26 252 0.0 0.0 0.00 0.00 0.00 66 1019.3
20230208082201 26 263 0.0 0.0 0.00 0.00 0.00 70 1019.3
20230208081701 26 264 0.0 0.0 0.00 0.00 0.00 69 1019.3
20230208081201 26 264 0.0 0.0 0.00 0.00 0.00 69 1019.4
20230208080702 26 264 0.0 0.0 0.00 0.00 0.00 68 1019.5
20230208080201 26 264 0.0 0.0 0.00 0.00 0.00 68 1019.5
20230208075701 26 264 0.0 0.0 0.00 0.00 0.00 68 1019.5
20230208075201 26 263 0.0 1.0 0.00 0.00 0.00 67 1019.6
20230208074702 26 254 0.0 0.0 0.00 0.00 0.00 66 1019.7
20230208074202 26 254 0.0 0.0 0.00 0.00 0.00 66 1019.7
20230208073702 26 254 0.0 5.0 0.00 0.00 0.00 66 1019.7
20230208072202 25 51 0.0 0.0 0.00 0.00 0.00 68 1019.8
20230208071202 26 217 0.0 0.0 0.00 0.00 0.00 70 1019.8
20230208070701 24 51 0.0 0.0 0.00 0.00 0.00 70 1019.8
20230208070201 24 51 0.0 0.0 0.00 0.00 0.00 71 1019.8
20230208065202 24 51 0.0 0.0 0.00 0.00 0.00 71 1019.7
20230208064701 24 51 0.0 0.0 0.00 0.00 0.00 71 1019.7
20230208064201 24 51 0.0 0.0 0.00 0.00 0.00 70 1019.7
20230208063702 24 51 0.0 0.0 0.00 0.00 0.00 70 1019.6
20230208063201 24 51 0.0 0.0 0.00 0.00 0.00 70 1019.6
20230208062701 24 51 0.0 0.0 0.00 0.00 0.00 70 1019.6
20230208062201 24 51 0.0 0.0 0.00 0.00 0.00 70 1019.7
20230208061702 24 51 0.0 0.0 0.00 0.00 0.00 70 1019.7
20230208061202 24 51 0.0 0.0 0.00 0.00 0.00 70 1019.7
20230208060202 25 51 0.0 0.0 0.00 0.00 0.00 69 1019.7
20230208055702 25 51 0.0 0.0 0.00 0.00 0.00 69 1019.7
20230208054702 25 51 0.0 0.0 0.00 0.00 0.00 68 1019.8
20230208054201 25 51 0.0 0.0 0.00 0.00 0.00 68 1019.8
20230208053701 25 51 0.0 0.0 0.00 0.00 0.00 67 1019.8
20230208052702 26 51 0.0 0.0 0.00 0.00 0.00 66 1019.8
20230208052201 26 51 0.0 0.0 0.00 0.00 0.00 65 1019.8
20230208051701 26 51 0.0 0.0 0.00 0.00 0.00 65 1019.8
20230208051201 26 51 0.0 0.0 0.00 0.00 0.00 66 1019.8
20230208050701 26 51 0.0 0.0 0.00 0.00 0.00 66 1019.8
20230208045701 26 51 0.0 0.0 0.00 0.00 0.00 66 1019.8
20230208045201 27 51 0.0 0.0 0.00 0.00 0.00 66 1019.8
20230208044701 27 51 0.0 0.0 0.00 0.00 0.00 66 1019.8
20230208044202 27 51 0.0 0.0 0.00 0.00 0.00 66 1019.9
20230208043701 27 51 0.0 0.0 0.00 0.00 0.00 66 1019.9
20230208043201 27 51 0.0 0.0 0.00 0.00 0.00 66 1019.9
20230208042701 27 51 0.0 0.0 0.00 0.00 0.00 66 1019.9
20230208042217 27 51 0.0 0.0 0.00 0.00 0.00 66 1020.0
20230208041702 27 51 0.0 0.0 0.00 0.00 0.00 67 1020.0
20230208041201 27 51 0.0 0.0 0.00 0.00 0.00 67 1020.0
20230208040701 27 51 0.0 0.0 0.00 0.00 0.00 66 1020.0
20230208040202 28 51 0.0 0.0 0.00 0.00 0.00 66 1020.1
20230208035701 28 51 0.0 0.0 0.00 0.00 0.00 66 1020.1
20230208034702 28 51 0.0 0.0 0.00 0.00 0.00 65 1020.2
20230208033701 28 51 0.0 0.0 0.00 0.00 0.00 65 1020.3
20230208033202 28 51 0.0 0.0 0.00 0.00 0.00 65 1020.3
20230208032202 29 51 0.0 0.0 0.00 0.00 0.00 63 1020.3
20230208031712 29 51 0.0 0.0 0.00 0.00 0.00 63 1020.4
20230208031201 29 51 0.0 0.0 0.00 0.00 0.00 62 1020.4
20230208030702 29 51 0.0 0.0 0.00 0.00 0.00 62 1020.4
20230208030201 29 51 0.0 0.0 0.00 0.00 0.00 61 1020.4
20230208025701 30 51 0.0 0.0 0.00 0.00 0.00 61 1020.4
20230208025201 30 51 0.0 0.0 0.00 0.00 0.00 60 1020.5
20230208024701 30 51 0.0 0.0 0.00 0.00 0.00 59 1020.6
20230208023701 31 51 0.0 0.0 0.00 0.00 0.00 56 1020.7
20230208023201 32 51 0.0 0.0 0.00 0.00 0.00 54 1020.7
20230208022701 32 51 0.0 0.0 0.00 0.00 0.00 54 1020.8
20230208022201 33 51 0.0 0.0 0.00 0.00 0.00 54 1020.8
20230208021701 33 51 0.0 0.0 0.00 0.00 0.00 53 1020.9
20230208021201 33 51 0.0 0.0 0.00 0.00 0.00 53 1020.9
20230208020702 33 51 0.0 0.0 0.00 0.00 0.00 53 1021.0
20230208020201 33 51 0.0 0.0 0.00 0.00 0.00 53 1021.0
20230208015701 33 51 0.0 0.0 0.00 0.00 0.00 52 1021.1
20230208015201 34 51 0.0 0.0 0.00 0.00 0.00 51 1021.1
20230208014201 34 51 0.0 0.0 0.00 0.00 0.00 50 1021.1
20230208013701 35 51 0.0 0.0 0.00 0.00 0.00 49 1021.1
20230208013201 35 51 0.0 0.0 0.00 0.00 0.00 49 1021.0
20230208012701 36 51 0.0 0.0 0.00 0.00 0.00 48 1021.0
20230208012201 37 51 0.0 0.0 0.00 0.00 0.00 46 1021.0
20230208011701 37 51 0.0 0.0 0.00 0.00 0.00 45 1021.0
20230208010701 37 51 0.0 0.0 0.00 0.00 0.00 45 1020.9
20230208010202 38 51 0.0 0.0 0.00 0.00 0.00 43 1020.9
20230208005202 40 51 0.0 1.0 0.00 0.00 0.00 41 1020.7
20230208004701 40 51 0.0 0.0 0.00 0.00 0.00 39 1020.7
20230208004201 41 51 0.0 1.0 0.00 0.00 0.00 38 1020.7
20230208003701 41 51 0.0 0.0 0.00 0.00 0.00 37 1020.6
20230208003201 41 51 0.0 1.0 0.00 0.00 0.00 36 1020.6
20230208002702 42 51 0.0 2.0 0.00 0.00 0.00 35 1020.6
20230208002201 42 51 1.0 3.0 0.00 0.00 0.00 34 1020.6
20230208001701 43 43 2.0 6.0 0.00 0.00 0.00 33 1020.5
20230208001202 43 64 2.0 6.0 0.00 0.00 0.00 33 1020.4
20230208000702 43 58 2.0 6.0 0.00 0.00 0.00 34 1020.4
20230208000203 43 52 3.0 5.0 0.00 0.00 0.00 33 1020.3
20230207235702 44 51 4.0 8.0 0.00 0.00 0.00 33 1020.3
20230207235202 44 64 3.0 8.0 0.00 0.00 0.00 31 1020.2
20230207234702 44 66 3.0 6.0 0.00 0.00 0.00 31 1020.1
20230207233702 44 72 4.0 9.0 0.00 0.00 0.00 31 1020.1
20230207233202 45 59 2.0 6.0 0.00 0.00 0.00 30 1020.0
20230207232701 45 42 5.0 9.0 0.00 0.00 0.00 30 1020.0
20230207232201 45 52 3.0 7.0 0.00 0.00 0.00 30 1020.0
20230207231202 46 50 5.0 9.0 0.00 0.00 0.00 29 1019.9
20230207230701 46 73 2.0 7.0 0.00 0.00 0.00 28 1019.9
20230207230202 47 32 5.0 9.0 0.00 0.00 0.00 28 1019.8
20230207225701 47 65 4.0 7.0 0.00 0.00 0.00 25 1019.7
20230207225201 47 36 2.0 5.0 0.00 0.00 0.00 22 1019.7
20230207224702 47 107 1.0 2.0 0.00 0.00 0.00 19 1019.7
20230207223702 48 96 1.0 3.0 0.00 0.00 0.00 20 1019.6
20230207223202 48 159 2.0 3.0 0.00 0.00 0.00 20 1019.7
20230207222702 48 141 2.0 3.0 0.00 0.00 0.00 20 1019.7
20230207222202 47 122 0.0 3.0 0.00 0.00 0.00 21 1019.7
20230207221702 47 45 2.0 3.0 0.00 0.00 0.00 21 1019.7
20230207221201 47 54 1.0 3.0 0.00 0.00 0.00 19 1019.7
20230207220702 48 52 2.0 5.0 0.00 0.00 0.00 20 1019.7
20230207220201 48 83 2.0 5.0 0.00 0.00 0.00 19 1019.7
20230207215708 48 130 2.0 6.0 0.00 0.00 0.00 19 1019.7
20230207215202 48 128 4.0 8.0 0.00 0.00 0.00 20 1019.7
20230207213702 48 115 0.0 2.0 0.00 0.00 0.00 21 1019.6
20230207213202 48 102 2.0 5.0 0.00 0.00 0.00 21 1019.6
20230207212703 48 89 2.0 3.0 0.00 0.00 0.00 22 1019.6
20230207211701 48 145 2.0 3.0 0.00 0.00 0.00 20 1019.6
20230207211201 47 144 1.0 3.0 0.00 0.00 0.00 19 1019.6
20230207210701 47 101 2.0 3.0 0.00 0.00 0.00 19 1019.7
20230207205202 47 145 2.0 3.0 0.00 0.00 0.00 20 1019.9
20230207204701 46 184 1.0 3.0 0.00 0.00 0.00 20 1020.0
20230207204202 47 76 1.0 3.0 0.00 0.00 0.00 21 1020.1
20230207203201 46 87 3.0 7.0 0.00 0.00 0.00 21 1020.2
20230207202702 47 142 1.0 6.0 0.00 0.00 0.00 22 1020.2
20230207202201 46 153 2.0 3.0 0.00 0.00 0.00 22 1020.3
20230207201701 47 93 1.0 3.0 0.00 0.00 0.00 22 1020.4
20230207201202 47 105 2.0 8.0 0.00 0.00 0.00 22 1020.5
20230207200201 46 105 1.0 3.0 0.00 0.00 0.00 24 1020.6
20230207195702 46 163 2.0 6.0 0.00 0.00 0.00 23 1020.6
20230207195202 46 147 1.0 5.0 0.00 0.00 0.00 25 1020.7
20230207194702 46 143 2.0 5.0 0.00 0.00 0.00 24 1020.8
20230207194201 46 109 2.0 6.0 0.00 0.00 0.00 25 1020.8
20230207193702 45 89 1.0 3.0 0.00 0.00 0.00 24 1020.8
20230207193201 45 127 3.0 7.0 0.00 0.00 0.00 24 1020.8
20230207192702 45 161 2.0 7.0 0.00 0.00 0.00 24 1020.8
20230207192202 44 138 3.0 8.0 0.00 0.00 0.00 25 1020.9
20230207190702 45 143 1.0 3.0 0.00 0.00 0.00 27 1021.2
20230207190201 44 117 3.0 6.0 0.00 0.00 0.00 26 1021.2
20230207185702 44 115 2.0 6.0 0.00 0.00 0.00 27 1021.3
20230207185201 44 167 4.0 7.0 0.00 0.00 0.00 26 1021.4
20230207184701 44 125 2.0 6.0 0.00 0.00 0.00 27 1021.4
20230207184201 43 173 2.0 6.0 0.00 0.00 0.00 27 1021.4
20230207183702 44 139 3.0 7.0 0.00 0.00 0.00 26 1021.5
20230207183201 43 143 2.0 5.0 0.00 0.00 0.00 28 1021.6
20230207182702 43 151 3.0 7.0 0.00 0.00 0.00 29 1021.6
20230207181701 42 150 2.0 8.0 0.00 0.00 0.00 31 1021.7
20230207181202 42 158 2.0 5.0 0.00 0.00 0.00 31 1021.8
20230207180702 42 134 1.0 5.0 0.00 0.00 0.00 31 1021.8
20230207175702 41 120 2.0 5.0 0.00 0.00 0.00 31 1021.8
20230207175201 41 117 3.0 5.0 0.00 0.00 0.00 30 1021.8
20230207174701 41 163 3.0 8.0 0.00 0.00 0.00 30 1021.8
20230207174202 41 138 2.0 6.0 0.00 0.00 0.00 31 1021.8
20230207173702 41 191 2.0 5.0 0.00 0.00 0.00 32 1021.8
20230207173202 41 110 2.0 5.0 0.00 0.00 0.00 32 1021.8
20230207172201 40 163 1.0 3.0 0.00 0.00 0.00 34 1021.7
20230207171702 39 175 3.0 7.0 0.00 0.00 0.00 34 1021.8
20230207171202 39 160 2.0 3.0 0.00 0.00 0.00 34 1021.7
20230207170702 39 103 2.0 5.0 0.00 0.00 0.00 35 1021.7
20230207170202 38 159 2.0 6.0 0.00 0.00 0.00 36 1021.7
20230207165702 38 113 2.0 3.0 0.00 0.00 0.00 36 1021.8
20230207164702 37 184 2.0 3.0 0.00 0.00 0.00 36 1021.8
20230207163701 36 162 3.0 7.0 0.00 0.00 0.00 36 1021.8
20230207162702 36 143 1.0 3.0 0.00 0.00 0.00 40 1021.8
20230207162202 36 147 2.0 5.0 0.00 0.00 0.00 41 1021.8
20230207161202 34 160 2.0 3.0 0.00 0.00 0.00 42 1021.9
20230207160202 33 175 2.0 3.0 0.00 0.00 0.00 43 1021.8
20230207155702 33 147 2.0 5.0 0.00 0.00 0.00 45 1021.7
20230207155202 33 150 2.0 3.0 0.00 0.00 0.00 45 1021.7
20230207154702 33 144 1.0 3.0 0.00 0.00 0.00 46 1021.7
20230207154202 33 177 0.0 2.0 0.00 0.00 0.00 47 1021.7
20230207153702 33 177 0.0 2.0 0.00 0.00 0.00 46 1021.7
20230207153202 32 177 0.0 0.0 0.00 0.00 0.00 47 1021.6
20230207152702 32 177 0.0 1.0 0.00 0.00 0.00 47 1021.6
20230207152202 31 177 1.0 2.0 0.00 0.00 0.00 48 1021.6
20230207151701 29 103 0.0 0.0 0.00 0.00 0.00 54 1021.6
20230207151201 28 103 0.0 0.0 0.00 0.00 0.00 54 1021.6
20230207150702 28 103 0.0 0.0 0.00 0.00 0.00 54 1021.5
20230207145702 27 102 0.0 0.0 0.00 0.00 0.00 53 1021.5
20230207145202 27 102 0.0 0.0 0.00 0.00 0.00 54 1021.5
20230207144202 27 102 0.0 0.0 0.00 0.00 0.00 53 1021.3
20230207143701 26 102 0.0 0.0 0.00 0.00 0.00 53 1021.2
20230207143202 26 102 0.0 2.0 0.00 0.00 0.00 53 1021.1
20230207142702 25 102 0.0 1.0 0.00 0.00 0.00 55 1021.0
20230207142201 25 62 0.0 1.0 0.00 0.00 0.00 56 1020.9
20230207141701 25 56 0.0 0.0 0.00 0.00 0.00 57 1021.0
20230207141201 25 56 0.0 0.0 0.00 0.00 0.00 57 1020.9
20230207140702 24 55 0.0 0.0 0.00 0.00 0.00 60 1020.9
20230207135702 22 53 0.0 0.0 0.00 0.00 0.00 64 1020.9
20230207134702 22 53 0.0 0.0 0.00 0.00 0.00 67 1020.8
20230207134202 21 53 0.0 0.0 0.00 0.00 0.00 69 1020.7
20230207133702 21 53 0.0 0.0 0.00 0.00 0.00 68 1020.7
20230207133201 21 53 0.0 0.0 0.00 0.00 0.00 71 1020.6
20230207131702 20 53 0.0 0.0 0.00 0.00 0.00 73 1020.5
20230207131202 20 53 0.0 0.0 0.00 0.00 0.00 73 1020.5
20230207130702 20 53 0.0 0.0 0.00 0.00 0.00 73 1020.3
20230207130202 20 53 0.0 0.0 0.00 0.00 0.00 72 1020.3
20230207125703 20 53 0.0 0.0 0.00 0.00 0.00 72 1020.3
20230207125202 21 53 0.0 0.0 0.00 0.00 0.00 71 1020.2
20230207124202 21 53 0.0 0.0 0.00 0.00 0.00 72 1020.2
20230207123702 21 53 0.0 0.0 0.00 0.00 0.00 72 1020.2
20230207122702 21 53 0.0 0.0 0.00 0.00 0.00 72 1020.1
20230207122201 21 53 0.0 0.0 0.00 0.00 0.00 71 1020.1
20230207121702 21 53 0.0 0.0 0.00 0.00 0.00 71 1020.1
20230207121202 21 53 0.0 0.0 0.00 0.00 0.00 71 1020.1
20230207120702 21 53 0.0 0.0 0.00 0.00 0.00 70 1020.1
20230207115702 22 53 0.0 0.0 0.00 0.00 0.00 70 1020.1
20230207114702 22 53 0.0 0.0 0.00 0.00 0.00 69 1020.1
20230207114202 22 53 0.0 0.0 0.00 0.00 0.00 67 1020.1
20230207113702 23 53 0.0 0.0 0.00 0.00 0.00 67 1020.0
20230207113202 23 53 0.0 0.0 0.00 0.00 0.00 66 1020.0
20230207112702 23 53 0.0 0.0 0.00 0.00 0.00 65 1020.0
20230207112202 23 53 0.0 0.0 0.00 0.00 0.00 65 1019.8
20230207111702 24 53 0.0 0.0 0.00 0.00 0.00 64 1019.9
20230207110702 23 53 0.0 0.0 0.00 0.00 0.00 68 1019.9
20230207110202 22 53 0.0 0.0 0.00 0.00 0.00 68 1019.8
20230207105701 22 53 0.0 0.0 0.00 0.00 0.00 69 1019.7
20230207105201 22 53 0.0 0.0 0.00 0.00 0.00 69 1019.7
20230207104702 22 53 0.0 0.0 0.00 0.00 0.00 69 1019.7
20230207104202 22 53 0.0 0.0 0.00 0.00 0.00 69 1019.7
20230207103702 23 53 0.0 0.0 0.00 0.00 0.00 67 1019.7
20230207103201 23 53 0.0 0.0 0.00 0.00 0.00 67 1019.7
20230207102702 23 53 0.0 0.0 0.00 0.00 0.00 67 1019.7
20230207102201 23 53 0.0 0.0 0.00 0.00 0.00 67 1019.6
20230207101702 23 53 0.0 0.0 0.00 0.00 0.00 67 1019.7
20230207101202 23 53 0.0 0.0 0.00 0.00 0.00 67 1019.7
20230207100702 23 53 0.0 0.0 0.00 0.00 0.00 67 1019.7